Sandy Bay Yacht Club
Weather Center


NOAA NWS Hourly Roundups by Site

NOAA NWS Hourly Roundups by Site

Regional Weather Roundup for Boston, MA

To Select Another Site Choose from List
Select Site:  

000
ASUS41 KBOX 032104
RWRBOX

REGIONAL WEATHER ROUNDUP
NATIONAL WEATHER SERVICE BOSTON/NORTON MA
500 PM EDT FRI JUL 03 2020

NOTE:  "FAIR" INDICATES FEW OR NO CLOUDS BELOW 12,000 FEET WITH NO
SIGNIFICANT WEATHER AND/OR OBSTRUCTIONS TO VISIBILITY.

MAZALL-032200-
EASTERN MASSACHUSETTS

CITY           SKY/WX    TMP DP  RH WIND       PRES   REMARKS
BOSTON         CLOUDY    66  60  81 N15       29.90F
BEVERLY        CLOUDY    64  60  87 NE8       29.91R
LAWRENCE       CLOUDY    64  60  87 NE13      29.94S
BEDFORD        CLOUDY    67  60  78 N9        29.90S
BLUE HILL      NOT AVBL
NORWOOD        CLOUDY    69  61  75 NE7       29.89S
MARSHFIELD     CLOUDY    66  66 100 N8        29.88F FOG
PLYMOUTH       NOT AVBL
TAUNTON        CLOUDY    68  61  78 N8        29.87F
NEW BEDFORD    CLOUDY    68  64  87 N8        29.86S
$$

MAZALL-032200-
CAPE COD AND THE ISLANDS

CITY           SKY/WX    TMP DP  RH WIND       PRES   REMARKS
FALMOUTH       CLOUDY    66  64  94 N12G20    29.86S FOG
HYANNIS        CLOUDY    71  65  81 N8        29.84S
CHATHAM        CLOUDY    67  64  90 NE8       29.85F FOG
PROVINCETOWN   CLOUDY    67  64  90 NE12      29.87F
NANTUCKET      CLOUDY    68  65  90 N14       29.83S FOG
MARTHAS VNYRD  CLOUDY    69  65  86 N14G20    29.84F
$$

MAZALL-032200-
CENTRAL AND WESTERN MASSACHUSETTS

CITY           SKY/WX    TMP DP  RH WIND       PRES   REMARKS
WORCESTER      CLOUDY    66  60  81 E10       29.92S
FITCHBURG      CLOUDY    70  60  70 NE7       29.92S
ORANGE         CLOUDY    71  64  78 E6        29.91S
SPRINGFIELD    NOT AVBL
WESTFIELD      RAIN      70  68  93 NE6       29.88S
NORTH ADAMS    LGT RAIN  72  69  90 E6        29.87F FOG
PITTSFIELD     LGT RAIN  73  70  90 VRB5      29.89R
$$

RIZALL-032200-
RHODE ISLAND

CITY           SKY/WX    TMP DP  RH WIND       PRES   REMARKS
PROVIDENCE     CLOUDY    70  63  78 NE15      29.87F
NEWPORT        CLOUDY    71  63  75 NE15      29.86S
BLOCK ISLAND   CLOUDY    69  64  84 NE9       29.86R
SMITHFIELD     CLOUDY    68  63  84 NE9       29.89F
WESTERLY       LGT RAIN  76  65  68 NE5       29.86R
$$

CTZALL-032200-
CONNECTICUT

CITY           SKY/WX    TMP DP  RH WIND       PRES   REMARKS
BRADLEY INTL   LGT RAIN  71  69  93 NE7       29.87S
HARTFORD       CLOUDY    74  68  81 E6        29.85S
BRIDGEPORT     TSTM      73  71  93 SE13      29.84R VSB 1/2
GROTON         LGT RAIN  72  69  90 N8        29.84S FOG
NEW HAVEN      LGT RAIN  75  73  93 E12       29.84S FOG
CHESTER        NOT AVBL
MERIDEN        LGT RAIN  73  69  87 N3        29.86R
WILLIMANTIC    CLOUDY    71  68  90 NE9       29.87S
OXFORD         LGT RAIN  74  70  87 E13       29.87R
$$

MEZ002-015-021-024-NHZ003-005-008-011-012-014-VTZ005-008-032200-
NORTHERN NEW ENGLAND

CITY           SKY/WX    TMP DP  RH WIND       PRES   REMARKS
PORTLAND ME    CLOUDY    64  58  80 E16       29.94F
BANGOR ME      CLOUDY    75  56  51 VRB3      29.93F
CONCORD NH     CLOUDY    71  62  73 E7        29.92S
MANCHESTER NH  CLOUDY    72  60  66 E10       29.90S
NASHUA NH      CLOUDY    72  64  76 E8        29.91F
PORTSMOUTH NH  CLOUDY    65  58  80 NE10      29.92S
JAFFREY NH     CLOUDY    69  61  75 VRB3      29.93S
KEENE NH       CLOUDY    72  64  76 VRB5      29.91S
BURLINGTON VT  MOSUNNY   85  60  42 N14       29.85S
MT. WASHINGTON FOG       54  54 100 N7          N/A  VSB 1/8
$$

NYZ052-076-032200-
EASTERN NEW YORK

CITY           SKY/WX    TMP DP  RH WIND       PRES   REMARKS
ALBANY         CLOUDY    79  71  76 W5        29.85F
NEW YORK CITY  CLOUDY    89  64  43 E13       29.78F HX  90
$$

ANZALL-032200-
MARINE OBSERVATIONS

STATION/POSITION TIME  TEMP    WIND        PRES    VSBY  WAVE
                       AIR SEA DIR/SP/G                  HT/PER
                 (UTC) (F)     (DEG/KT/KT) (MB)    (MI)  (FT/S)
BOSTON BUOY      2050   63 65   10/ 14/ 17 1011.3S         4/ 6
BUZZARDS BAY     2000           40/ 16/ 17 1011.9R
NANTUCKET SOUND  2050   68 71   10/ 14/ 16 1009.9S         2/ 3
MASS BAY-STELLWA 2004   61      50/ 14/ 16 1010.3S  1 7/8  5/ 6
ISLE OF SHOALS   2000   60      50/ 16/ 17 1012.4R
S OF BLOCK IS    2026      70                N/A           3/ 7
$$

......................KEY.........................
  SKY/WX - SKY CONDITION/PRESENT WEATHER
  TMP    - TEMPERATURE IN FAHRENHEIT
  DWPT   - DEWPOINT IN FAHRENHEIT
  RH     - RELATIVE HUMIDITY IN PERCENT
  WIND   - DIRECTION AND SPEED IN MPH
  PRES   - MEAN SEA LEVEL PRESSURE IN INCHES OF HG
  WCI    - WIND CHILL INDEX
  VSB    - VISIBILITY IN MILES
  HX     - HEAT INDEX
  TC     - TEMPERATURE IN CELSIUS
  VRB    - VARIABLE WIND DIRECTION
  N/A    - NOT AVAILABLE


 

View Past Reports for Boston, MA.

Products Courtesy of NOAA-NWS
NWS Information Parsing Script by Ken True at Saratoga Weather - Script by SE Lincoln Weather.

 



home

Copyright © Sandy Bay Yacht Club. All rights reserved.